User: anonymous   Login
Location: Forst
(46.9333°N, 15.4333°E)
Time: 23:13:32
(UTC+00:00)
Language:

OV1 5 - Orbit

View from above orbital plane
View from above orbital plane
View from above satellite
View from above satellite

Ground track
Ground track

The orbit data is extracted from the following two-line orbital elements,

1 02122U 66025B   21175.54850355  .00000261  00000-0  51613-5 0  9997
2 02122 144.6336 110.8724 0048077 295.1683  64.4010 13.65873062756339
Epoch (UTC): 24 June 2021 13:09:50
Eccentricity: 0.0048077
inclination: 144.6336°
perigee height: 979 km
apogee height: 1050 km
right ascension of ascending node: 110.8724°
argument of perigee: 295.1683°
revolutions per day: 13.65873062
mean anomaly at epoch: 64.4010°
orbit number at epoch: 75633

The dashed part of the orbit path shows where the satellite is in the earth's shadow,  

DLR